Jackson, MI

5:28 AM EST on January 18, 2018 (GMT -0500)
Jackson County-Reynolds

Weather History for KJXN - June, 2013

Change the Weather History Date:

Monday, June 17, 2013

  Actual Average Record
Temperature  
Mean Temperature 71 °F 68 °F  
Max Temperature 85 °F 79 °F 94 °F (1957)
Min Temperature 56 °F 57 °F 44 °F (1958)
Degree Days  
Heating Degree Days 0 1  
Month to date heating degree days 47 43  
Since 1 June heating degree days 47 43  
Since 1 July heating degree days 6551 6645  
Cooling Degree Days 6 5  
Month to date cooling degree days 36 54  
Year to date cooling degree days 103 91  
Since 1 June cooling degree days 36 54  
Growing Degree Days 20 (Base 50)    
Moisture  
Dew Point 57 °F    
Average Humidity 61    
Maximum Humidity 86    
Minimum Humidity 36    
Precipitation  
Precipitation 0.04 in 0.11 in 1.17 in (1956)
Month to date precipitation 2.70 1.86  
Year to date precipitation 15.32 12.46  
Sea Level Pressure  
Sea Level Pressure 29.91 in    
Wind  
Wind Speed 5 mph (WSW)    
Max Wind Speed 13 mph    
Max Gust Speed 20 mph    
Visibility 10 miles    
Events Rain , Thunderstorm    
T = Trace of Precipitation, MM = Missing Value Source: NWS Daily Summary

Daily Weather History Graph

Daily Weather History Graph

Search for Another Location

Airport or City:

Trip Planner

Search our weather history database for the weather conditions in past years. The results will help you decide how hot, cold, wet, or windy it might be!

Date:

Astronomy

Jun. 17, 2013 Rise Set
Actual Time 6:00 AM EDT 9:16 PM EDT
Civil Twilight 5:26 AM EDT 9:51 PM EDT
Nautical Twilight 4:41 AM EDT 10:36 PM EDT
Astronomical Twilight 3:46 AM EDT 11:31 PM EDT
Moon 2:49 PM EDT (6/17) 1:42 AM EDT (6/17)
Length of Visible Light 16h 25m
Length of Day
15h 16m
First Quarter, 60% of the Moon is Illuminated
Jun 17
First Quarter
Jun 23
Full
Jun 30
Last Quarter
Jul 8
New
Jul 15
First Quarter

Hourly Weather History & Observations

Time (EDT) Temp. Heat Index Dew Point Humidity Pressure Visibility Wind Dir Wind Speed Gust Speed Precip Events Conditions
12:56 AM 59.0 °F - 54.0 °F 83% 29.92 in 10.0 mi WSW 4.6 mph - N/A   Clear
1:56 AM 61.0 °F - 55.0 °F 81% 29.92 in 10.0 mi SW 5.8 mph - N/A   Clear
2:56 AM 57.9 °F - 53.1 °F 84% 29.91 in 10.0 mi SW 3.5 mph - N/A   Clear
3:56 AM 59.0 °F - 54.0 °F 83% 29.91 in 10.0 mi SW 5.8 mph - N/A   Clear
4:56 AM 59.0 °F - 54.0 °F 83% 29.90 in 10.0 mi WSW 4.6 mph - N/A   Clear
5:56 AM 59.0 °F - 54.0 °F 83% 29.92 in 10.0 mi SW 4.6 mph - N/A   Clear
6:56 AM 61.0 °F - 55.9 °F 83% 29.92 in 10.0 mi Calm Calm - N/A   Clear
7:56 AM 66.9 °F - 59.0 °F 76% 29.92 in 10.0 mi Calm Calm - N/A   Clear
8:56 AM 70.0 °F - 61.0 °F 73% 29.92 in 10.0 mi SW 6.9 mph - N/A   Clear
9:56 AM 75.9 °F - 64.0 °F 67% 29.94 in 10.0 mi Variable 3.5 mph - N/A   Clear
10:56 AM 78.1 °F - 62.1 °F 58% 29.93 in 10.0 mi Variable 5.8 mph - N/A   Clear
11:56 AM 80.1 °F 80.6 °F 57.9 °F 47% 29.93 in 10.0 mi West 9.2 mph - N/A   Clear
12:56 PM 81.0 °F 80.7 °F 55.0 °F 41% 29.92 in 10.0 mi West 8.1 mph - N/A   Clear
1:56 PM 82.9 °F 82.1 °F 55.9 °F 39% 29.90 in 10.0 mi Variable 6.9 mph - N/A   Clear
2:56 PM 84.0 °F 82.9 °F 55.0 °F 37% 29.90 in 10.0 mi West 8.1 mph 16.1 mph N/A   Clear
3:56 PM 84.0 °F 83.3 °F 57.0 °F 40% 29.88 in 10.0 mi West 9.2 mph 17.3 mph N/A   Clear
4:56 PM 84.0 °F 83.0 °F 55.9 °F 38% 29.87 in 10.0 mi WSW 5.8 mph 19.6 mph N/A   Clear
5:56 PM 82.0 °F 81.3 °F 54.0 °F 38% 29.86 in 10.0 mi West 8.1 mph - N/A   Mostly Cloudy
6:56 PM 80.1 °F - 52.0 °F 38% 29.86 in 10.0 mi West 6.9 mph - N/A   Scattered Clouds
7:56 PM 79.0 °F - 55.0 °F 44% 29.86 in 10.0 mi West 5.8 mph - N/A   Clear
8:56 PM 75.0 °F - 55.0 °F 50% 29.87 in 10.0 mi West 4.6 mph - N/A   Clear
9:56 PM 73.0 °F - 55.0 °F 53% 29.86 in 10.0 mi Calm Calm - N/A   Clear
10:56 PM 70.0 °F - 57.0 °F 63% 29.90 in 10.0 mi Variable 5.8 mph - N/A Thunderstorm Mostly Cloudy
11:17 PM 66.2 °F - 60.8 °F 83% 29.94 in 7.0 mi SW 4.6 mph - 0.04 in Rain Light Rain
11:37 PM 66.2 °F - 60.8 °F 83% 29.94 in 10.0 mi Calm Calm - 0.04 in Thunderstorm Mostly Cloudy
11:52 PM 64.4 °F - 60.8 °F 88% 29.93 in 10.0 mi North 3.5 mph - 0.04 in   Mostly Cloudy
11:56 PM 64.0 °F - 61.0 °F 90% 29.91 in 10.0 mi NE 3.5 mph - 0.04 in   Scattered Clouds